When you browse on this site, cookies collect data to enhance your experience and personalize the content and advertising you see.
Visit our Privacy Policy to learn more. By continuing to use the site, you agree to this use of cookies and data.

Hourly Weather Livani

Today, 9 July, Thursday

Time Temperature Precipitation Wind Pressure Humidity
00:00 +8°C° 0 mm 2 mps 750 mmHg 96%
01:00 +8°C° 0 mm 2 mps 750 mmHg 96%
02:00 +7°C° 0 mm 2 mps 750 mmHg 97%
03:00 +7°C° 0 mm 2 mps 750 mmHg 97%
04:00 +7°C° 0 mm 2 mps 750 mmHg 97%
05:00 +7°C° 0 mm 2 mps 750 mmHg 97%
06:00 +9°C° 0 mm 2 mps 750 mmHg 93%
07:00 +12°C° 0 mm 2 mps 751 mmHg 88%
08:00 +12°C° 0 mm 3 mps 751 mmHg 83%
09:00 +14°C° 0.1 mm 3 mps 751 mmHg 74%
10:00 +16°C° 0.1 mm 3 mps 751 mmHg 66%
11:00 +18°C° 0.1 mm 4 mps 751 mmHg 58%
12:00 +18°C° 0.3 mm 4 mps 751 mmHg 58%
13:00 +19°C° 0.3 mm 4 mps 751 mmHg 58%
14:00 +19°C° 0.3 mm 4 mps 751 mmHg 58%
15:00 +19°C° 0.3 mm 4 mps 751 mmHg 61%
16:00 +18°C° 0.3 mm 4 mps 751 mmHg 64%
17:00 +18°C° 0.3 mm 4 mps 751 mmHg 67%
18:00 +17°C° 0.1 mm 3 mps 751 mmHg 73%
19:00 +16°C° 0.1 mm 2 mps 751 mmHg 79%
20:00 +15°C° 0.1 mm 2 mps 751 mmHg 85%
21:00 +13°C° 0 mm 2 mps 751 mmHg 88%
22:00 +12°C° 0 mm 2 mps 752 mmHg 92%
23:00 +10°C° 0 mm 2 mps 752 mmHg 95%

Tomorrow, 10 July, Friday

Time Temperature Precipitation Wind Pressure Humidity
00:00 +10°C° 0 mm 2 mps 752 mmHg 95%
01:00 +10°C° 0 mm 2 mps 752 mmHg 94%
02:00 +12°C° 0 mm 2 mps 752 mmHg 94%
03:00 +12°C° 0.4 mm 2 mps 751 mmHg 94%
04:00 +12°C° 0.4 mm 2 mps 751 mmHg 95%
05:00 +12°C° 0.4 mm 2 mps 750 mmHg 95%
06:00 +12°C° 1.5 mm 2 mps 750 mmHg 96%
07:00 +12°C° 1.5 mm 3 mps 750 mmHg 97%
08:00 +12°C° 1.5 mm 4 mps 749 mmHg 98%
09:00 +12°C° 1.1 mm 3 mps 749 mmHg 98%
10:00 +13°C° 1.1 mm 3 mps 748 mmHg 98%
11:00 +13°C° 1.1 mm 3 mps 748 mmHg 98%
12:00 +14°C° 0.2 mm 3 mps 748 mmHg 97%
13:00 +16°C° 0.2 mm 2 mps 748 mmHg 95%
14:00 +18°C° 0.2 mm 2 mps 747 mmHg 94%
15:00 +18°C° 0.3 mm 2 mps 748 mmHg 89%
16:00 +19°C° 0.3 mm 2 mps 748 mmHg 85%
17:00 +20°C° 0.3 mm 3 mps 748 mmHg 80%
18:00 +19°C° 0 mm 2 mps 748 mmHg 83%
19:00 +19°C° 0 mm 1 mps 748 mmHg 86%
20:00 +18°C° 0 mm 1 mps 748 mmHg 90%
21:00 +18°C° 0 mm 1 mps 748 mmHg 92%
22:00 +16°C° 0 mm 2 mps 748 mmHg 95%
23:00 +15°C° 0 mm 2 mps 748 mmHg 97%

Day after tomorrow, 11 July, Saturday

Time Temperature Precipitation Wind Pressure Humidity
00:00 +16°C° 0.2 mm 2 mps 748 mmHg 97%
01:00 +16°C° 0.2 mm 2 mps 748 mmHg 96%
02:00 +16°C° 0.2 mm 3 mps 747 mmHg 96%
03:00 +17°C° 0.3 mm 3 mps 747 mmHg 96%
04:00 +17°C° 0.3 mm 4 mps 747 mmHg 97%
05:00 +18°C° 0.3 mm 4 mps 747 mmHg 97%
06:00 +17°C° 0.2 mm 5 mps 747 mmHg 96%
07:00 +16°C° 0.2 mm 5 mps 748 mmHg 95%
08:00 +16°C° 0.2 mm 5 mps 748 mmHg 94%
09:00 +17°C° 0 mm 5 mps 749 mmHg 83%
10:00 +19°C° 0 mm 5 mps 750 mmHg 72%
11:00 +20°C° 0 mm 5 mps 751 mmHg 61%
12:00 +20°C° 0 mm 5 mps 752 mmHg 57%
13:00 +21°C° 0 mm 5 mps 752 mmHg 54%
14:00 +21°C° 0 mm 5 mps 753 mmHg 50%
15:00 +21°C° 0 mm 5 mps 753 mmHg 54%
16:00 +20°C° 0 mm 4 mps 753 mmHg 57%
17:00 +19°C° 0 mm 4 mps 754 mmHg 60%
18:00 +18°C° 0 mm 3 mps 754 mmHg 66%
19:00 +17°C° 0 mm 3 mps 754 mmHg 71%
20:00 +16°C° 0 mm 2 mps 754 mmHg 77%
21:00 +14°C° 0 mm 2 mps 755 mmHg 81%
22:00 +13°C° 0 mm 2 mps 755 mmHg 86%
23:00 +12°C° 0 mm 2 mps 756 mmHg 90%

12 July, Sunday

Time Temperature Precipitation Wind Pressure Humidity
00:00 +12°C° 0 mm 2 mps 756 mmHg 92%
01:00 +10°C° 0 mm 2 mps 756 mmHg 94%
02:00 +10°C° 0 mm 1 mps 756 mmHg 96%
03:00 +11°C° 0 mm 1 mps 756 mmHg 94%
04:00 +11°C° 0 mm 1 mps 756 mmHg 92%
05:00 +11°C° 0 mm 1 mps 756 mmHg 90%
06:00 +12°C° 0 mm 1 mps 756 mmHg 84%
07:00 +14°C° 0 mm 1 mps 756 mmHg 77%
08:00 +15°C° 0 mm 1 mps 756 mmHg 71%
09:00 +16°C° 0 mm 1 mps 756 mmHg 65%
10:00 +17°C° 0 mm 2 mps 756 mmHg 60%
11:00 +19°C° 0 mm 2 mps 756 mmHg 54%
12:00 +19°C° 0 mm 2 mps 756 mmHg 52%
13:00 +20°C° 0 mm 2 mps 756 mmHg 51%
14:00 +20°C° 0 mm 2 mps 756 mmHg 49%
15:00 +20°C° 0 mm 2 mps 755 mmHg 51%
16:00 +20°C° 0 mm 2 mps 755 mmHg 53%
17:00 +20°C° 0 mm 2 mps 755 mmHg 55%
18:00 +19°C° 0 mm 2 mps 755 mmHg 63%
19:00 +18°C° 0 mm 1 mps 755 mmHg 72%
20:00 +16°C° 0 mm 1 mps 755 mmHg 80%
21:00 +15°C° 0 mm 1 mps 755 mmHg 82%
22:00 +15°C° 0 mm 1 mps 755 mmHg 84%
23:00 +14°C° 0 mm 1 mps 755 mmHg 86%

13 July, Monday

Time Temperature Precipitation Wind Pressure Humidity
00:00 +14°C° 0 mm 1 mps 755 mmHg 87%
01:00 +13°C° 0 mm 1 mps 755 mmHg 88%
02:00 +13°C° 0 mm 1 mps 755 mmHg 89%
03:00 +13°C° 0 mm 1 mps 755 mmHg 89%
04:00 +13°C° 0 mm 1 mps 755 mmHg 89%
05:00 +13°C° 0 mm 1 mps 755 mmHg 89%
06:00 +14°C° 0.1 mm 1 mps 755 mmHg 87%
07:00 +14°C° 0.1 mm 1 mps 755 mmHg 84%
08:00 +15°C° 0.1 mm 1 mps 755 mmHg 81%
09:00 +16°C° 0.2 mm 1 mps 754 mmHg 82%
10:00 +16°C° 0.2 mm 1 mps 754 mmHg 82%
11:00 +16°C° 0.2 mm 1 mps 754 mmHg 82%
12:00 +16°C° 0.3 mm 2 mps 754 mmHg 81%
13:00 +16°C° 0.3 mm 2 mps 754 mmHg 79%
14:00 +16°C° 0.3 mm 3 mps 753 mmHg 78%
15:00 +16°C° 0.1 mm 3 mps 753 mmHg 78%
16:00 +14°C° 0.1 mm 3 mps 753 mmHg 78%
17:00 +14°C° 0.1 mm 3 mps 753 mmHg 78%
18:00 +13°C° 0 mm 3 mps 753 mmHg 79%
19:00 +13°C° 0 mm 3 mps 753 mmHg 81%
20:00 +13°C° 0 mm 3 mps 753 mmHg 83%
21:00 +13°C° 0 mm 2 mps 752 mmHg 83%
22:00 +13°C° 0 mm 2 mps 752 mmHg 83%
23:00 +13°C° 0 mm 2 mps 752 mmHg 83%

14 July, Tuesday

Time Temperature Precipitation Wind Pressure Humidity
00:00 +13°C° 0 mm 2 mps 752 mmHg 85%
01:00 +12°C° 0 mm 3 mps 752 mmHg 86%
02:00 +12°C° 0 mm 3 mps 752 mmHg 88%
03:00 +12°C° 0 mm 3 mps 751 mmHg 89%
04:00 +12°C° 0 mm 3 mps 751 mmHg 90%
05:00 +12°C° 0 mm 3 mps 751 mmHg 91%
06:00 +13°C° 0 mm 3 mps 751 mmHg 88%
07:00 +14°C° 0 mm 4 mps 751 mmHg 84%
08:00 +15°C° 0 mm 4 mps 751 mmHg 80%
09:00 +17°C° 0 mm 4 mps 750 mmHg 74%
10:00 +19°C° 0 mm 5 mps 750 mmHg 68%
11:00 +20°C° 0 mm 5 mps 750 mmHg 62%
12:00 +21°C° 0 mm 5 mps 750 mmHg 59%
13:00 +22°C° 0 mm 5 mps 749 mmHg 56%
14:00 +22°C° 0 mm 5 mps 749 mmHg 53%
15:00 +22°C° 0 mm 4 mps 749 mmHg 56%
16:00 +22°C° 0 mm 4 mps 749 mmHg 58%
17:00 +22°C° 0 mm 3 mps 749 mmHg 60%
18:00 +21°C° 0 mm 3 mps 748 mmHg 63%
19:00 +20°C° 0 mm 3 mps 748 mmHg 66%
20:00 +19°C° 0 mm 3 mps 748 mmHg 68%
21:00 +19°C° 0 mm 4 mps 748 mmHg 68%
22:00 +18°C° 0 mm 4 mps 748 mmHg 67%
23:00 +17°C° 0 mm 4 mps 748 mmHg 67%
Show more